Year,Month,Day,Hour,Minute,Value (Times are PST for temperature in C)
2017,03,23,00,00,6.40
2017,03,23,00,01,6.40
2017,03,23,00,02,6.30
2017,03,23,00,03,6.30
2017,03,23,00,04,6.30
2017,03,23,00,05,6.30
2017,03,23,00,06,6.30
2017,03,23,00,07,6.30
2017,03,23,00,08,6.30
2017,03,23,00,09,6.30
2017,03,23,00,10,6.30
2017,03,23,00,11,6.30
2017,03,23,00,12,6.30
2017,03,23,00,13,6.30
2017,03,23,00,14,6.30
2017,03,23,00,15,6.30
2017,03,23,00,16,6.30
2017,03,23,00,17,6.30
2017,03,23,00,18,6.30
2017,03,23,00,19,6.30
2017,03,23,00,20,6.30
2017,03,23,00,21,6.30
2017,03,23,00,22,6.40
2017,03,23,00,23,6.30
2017,03,23,00,24,6.30
2017,03,23,00,25,6.30
2017,03,23,00,26,6.40
2017,03,23,00,27,6.40
2017,03,23,00,28,6.40
2017,03,23,00,29,6.40
2017,03,23,00,30,6.40
2017,03,23,00,31,6.40
2017,03,23,00,32,6.50
2017,03,23,00,33,6.50
2017,03,23,00,34,6.50
2017,03,23,00,35,6.60
2017,03,23,00,36,6.60
2017,03,23,00,37,6.60
2017,03,23,00,38,6.60
2017,03,23,00,39,6.60
2017,03,23,00,40,6.60
2017,03,23,00,41,6.60
2017,03,23,00,42,6.60
2017,03,23,00,43,6.60
2017,03,23,00,44,6.70
2017,03,23,00,45,6.70
2017,03,23,00,46,6.70
2017,03,23,00,47,6.70
2017,03,23,00,48,6.70
2017,03,23,00,49,6.70
2017,03,23,00,50,6.70
2017,03,23,00,51,6.70
2017,03,23,00,52,6.70
2017,03,23,00,53,6.70
2017,03,23,00,54,6.70
2017,03,23,00,55,6.60
2017,03,23,00,56,6.60
2017,03,23,00,57,6.60
2017,03,23,00,58,6.50
2017,03,23,00,59,6.50
2017,03,23,01,00,6.40
2017,03,23,01,01,6.40
2017,03,23,01,02,6.30
2017,03,23,01,03,6.30
2017,03,23,01,04,6.30
2017,03,23,01,05,6.20
2017,03,23,01,06,6.20
2017,03,23,01,07,6.20
2017,03,23,01,08,6.20
2017,03,23,01,09,6.10
2017,03,23,01,10,6.10
2017,03,23,01,11,6.10
2017,03,23,01,12,6.10
2017,03,23,01,13,6.00
2017,03,23,01,14,6.00
2017,03,23,01,15,5.90
2017,03,23,01,16,5.90
2017,03,23,01,17,5.90
2017,03,23,01,18,5.80
2017,03,23,01,19,5.80
2017,03,23,01,20,5.70
2017,03,23,01,21,5.70
2017,03,23,01,22,5.60
2017,03,23,01,23,5.60
2017,03,23,01,24,5.50
2017,03,23,01,25,5.50
2017,03,23,01,26,5.50
2017,03,23,01,27,5.50
2017,03,23,01,28,5.40
2017,03,23,01,29,5.50
2017,03,23,01,30,5.50
2017,03,23,01,31,5.50
2017,03,23,01,32,5.50
2017,03,23,01,33,5.50
2017,03,23,01,34,5.50
2017,03,23,01,35,5.40
2017,03,23,01,36,5.30
2017,03,23,01,37,5.20
2017,03,23,01,38,5.10
2017,03,23,01,39,5.00
2017,03,23,01,40,4.90
2017,03,23,01,41,4.80
2017,03,23,01,42,4.80
2017,03,23,01,43,4.80
2017,03,23,01,44,4.70
2017,03,23,01,45,4.70
2017,03,23,01,46,4.70
2017,03,23,01,47,4.60
2017,03,23,01,48,4.60
2017,03,23,01,49,4.60
2017,03,23,01,50,4.50
2017,03,23,01,51,4.50
2017,03,23,01,52,4.50
2017,03,23,01,53,4.40
2017,03,23,01,54,4.40
2017,03,23,01,55,4.40
2017,03,23,01,56,4.30
2017,03,23,01,57,4.30
2017,03,23,01,58,4.30
2017,03,23,01,59,4.30
2017,03,23,02,00,4.20
2017,03,23,02,01,4.20
2017,03,23,02,02,4.20
2017,03,23,02,03,4.10
2017,03,23,02,04,4.10
2017,03,23,02,05,4.10
2017,03,23,02,06,4.10
2017,03,23,02,07,4.00
2017,03,23,02,08,4.00
2017,03,23,02,09,4.00
2017,03,23,02,10,3.90
2017,03,23,02,11,3.90
2017,03,23,02,12,3.90
2017,03,23,02,13,3.90
2017,03,23,02,14,3.80
2017,03,23,02,15,3.80
2017,03,23,02,16,3.80
2017,03,23,02,17,3.80
2017,03,23,02,18,3.80
2017,03,23,02,19,3.80
2017,03,23,02,20,3.80
2017,03,23,02,21,3.80
2017,03,23,02,22,3.80
2017,03,23,02,23,3.80
2017,03,23,02,24,3.80
2017,03,23,02,25,3.80
2017,03,23,02,26,3.80
2017,03,23,02,27,3.90
2017,03,23,02,28,3.90
2017,03,23,02,29,3.90
2017,03,23,02,30,3.90
2017,03,23,02,31,3.90
2017,03,23,02,32,3.80
2017,03,23,02,33,3.80
2017,03,23,02,34,3.80
2017,03,23,02,35,3.80
2017,03,23,02,36,3.80
2017,03,23,02,37,3.90
2017,03,23,02,38,3.90
2017,03,23,02,39,3.90
2017,03,23,02,40,3.90
2017,03,23,02,41,3.90
2017,03,23,02,42,3.90
2017,03,23,02,43,3.90
2017,03,23,02,44,3.90
2017,03,23,02,45,3.90
2017,03,23,02,46,4.00
2017,03,23,02,47,4.00
2017,03,23,02,48,4.00
2017,03,23,02,49,4.00
2017,03,23,02,50,4.00
2017,03,23,02,51,4.10
2017,03,23,02,52,4.10
2017,03,23,02,53,4.10
2017,03,23,02,54,4.10
2017,03,23,02,55,4.10
2017,03,23,02,56,4.10
2017,03,23,02,57,4.10
2017,03,23,02,58,4.10
2017,03,23,02,59,4.10
2017,03,23,03,00,4.10
2017,03,23,03,01,4.10
2017,03,23,03,02,4.10
2017,03,23,03,03,4.10
2017,03,23,03,04,4.00
2017,03,23,03,05,4.00
2017,03,23,03,06,4.00
2017,03,23,03,07,4.00
2017,03,23,03,08,4.00
2017,03,23,03,09,3.90
2017,03,23,03,10,3.90
2017,03,23,03,11,3.90
2017,03,23,03,12,3.90
2017,03,23,03,13,3.90
2017,03,23,03,14,3.90
2017,03,23,03,15,3.90
2017,03,23,03,16,3.90
2017,03,23,03,17,3.80
2017,03,23,03,18,3.80
2017,03,23,03,19,3.80
2017,03,23,03,20,3.80
2017,03,23,03,21,3.80
2017,03,23,03,22,3.80
2017,03,23,03,23,3.80
2017,03,23,03,24,3.80
2017,03,23,03,25,3.80
2017,03,23,03,26,3.80
2017,03,23,03,27,3.80
2017,03,23,03,28,3.80
2017,03,23,03,29,3.80
2017,03,23,03,30,3.80
2017,03,23,03,31,3.80
2017,03,23,03,32,3.90
2017,03,23,03,33,3.90
2017,03,23,03,34,3.90
2017,03,23,03,35,3.90
2017,03,23,03,36,3.90
2017,03,23,03,37,3.90
2017,03,23,03,38,3.90
2017,03,23,03,39,3.90
2017,03,23,03,40,3.90
2017,03,23,03,41,3.90
2017,03,23,03,42,3.90
2017,03,23,03,43,3.90
2017,03,23,03,44,3.90
2017,03,23,03,45,3.90
2017,03,23,03,46,3.90
2017,03,23,03,47,3.90
2017,03,23,03,48,3.90
2017,03,23,03,49,3.90
2017,03,23,03,50,3.90
2017,03,23,03,51,3.90
2017,03,23,03,52,3.90
2017,03,23,03,53,3.90
2017,03,23,03,54,3.90
2017,03,23,03,55,3.90
2017,03,23,03,56,3.90
2017,03,23,03,57,3.90
2017,03,23,03,58,3.90
2017,03,23,03,59,3.90
2017,03,23,04,00,3.90
2017,03,23,04,01,3.90
2017,03,23,04,02,3.90
2017,03,23,04,03,3.90
2017,03,23,04,04,3.90
2017,03,23,04,05,3.90
2017,03,23,04,06,3.80
2017,03,23,04,07,3.80
2017,03,23,04,08,3.80
2017,03,23,04,09,3.80
2017,03,23,04,10,3.80
2017,03,23,04,11,3.80
2017,03,23,04,12,3.80
2017,03,23,04,13,3.80
2017,03,23,04,14,3.80
2017,03,23,04,15,3.80
2017,03,23,04,16,3.80
2017,03,23,04,17,3.80
2017,03,23,04,18,3.70
2017,03,23,04,19,3.80
2017,03,23,04,20,3.70
2017,03,23,04,21,3.70
2017,03,23,04,22,3.70
2017,03,23,04,23,3.70
2017,03,23,04,24,3.70
2017,03,23,04,25,3.70
2017,03,23,04,26,3.70
2017,03,23,04,27,3.70
2017,03,23,04,28,3.70
2017,03,23,04,29,3.70
2017,03,23,04,30,3.70
2017,03,23,04,31,3.70
2017,03,23,04,32,3.70
2017,03,23,04,33,3.70
2017,03,23,04,34,3.70
2017,03,23,04,35,3.70
2017,03,23,04,36,3.70
2017,03,23,04,37,3.80
2017,03,23,04,38,3.80
2017,03,23,04,39,3.80
2017,03,23,04,40,3.80
2017,03,23,04,41,3.80
2017,03,23,04,42,3.80
2017,03,23,04,43,3.80
2017,03,23,04,44,3.80
2017,03,23,04,45,3.80
2017,03,23,04,46,3.80
2017,03,23,04,47,3.80
2017,03,23,04,48,3.80
2017,03,23,04,49,3.80
2017,03,23,04,50,3.80
2017,03,23,04,51,3.80
2017,03,23,04,52,3.80
2017,03,23,04,53,3.80
2017,03,23,04,54,3.80
2017,03,23,04,55,3.80
2017,03,23,04,56,3.80
2017,03,23,04,57,3.80
2017,03,23,04,58,3.90
2017,03,23,04,59,3.90
2017,03,23,05,00,3.90
2017,03,23,05,01,3.90
2017,03,23,05,02,3.90
2017,03,23,05,03,3.90
2017,03,23,05,04,3.90
2017,03,23,05,05,3.90
2017,03,23,05,06,4.00
2017,03,23,05,07,4.00
2017,03,23,05,08,4.00
2017,03,23,05,09,4.00
2017,03,23,05,10,4.00
2017,03,23,05,11,4.00
2017,03,23,05,12,3.90
2017,03,23,05,13,3.90
2017,03,23,05,14,3.90
2017,03,23,05,15,3.90
2017,03,23,05,16,3.90
2017,03,23,05,17,3.90
2017,03,23,05,18,3.90
2017,03,23,05,19,3.90
2017,03,23,05,20,4.00
2017,03,23,05,21,4.00
2017,03,23,05,22,4.00
2017,03,23,05,23,4.10
2017,03,23,05,24,4.10
2017,03,23,05,25,4.10
2017,03,23,05,26,4.10
2017,03,23,05,27,4.10
2017,03,23,05,28,4.10
2017,03,23,05,29,4.10
2017,03,23,05,30,4.10
2017,03,23,05,31,4.10
2017,03,23,05,32,4.10
2017,03,23,05,33,4.10
2017,03,23,05,34,4.10
2017,03,23,05,35,4.10
2017,03,23,05,36,4.10
2017,03,23,05,37,4.10
2017,03,23,05,38,4.10
2017,03,23,05,39,4.00
2017,03,23,05,40,4.10
2017,03,23,05,41,4.00
2017,03,23,05,42,4.10
2017,03,23,05,43,4.10
2017,03,23,05,44,4.10
2017,03,23,05,45,4.10
2017,03,23,05,46,4.10
2017,03,23,05,47,4.10
2017,03,23,05,48,4.20
2017,03,23,05,49,4.20
2017,03,23,05,50,4.20
2017,03,23,05,51,4.20
2017,03,23,05,52,4.20
2017,03,23,05,53,4.20
2017,03,23,05,54,4.20
2017,03,23,05,55,4.20
2017,03,23,05,56,4.20
2017,03,23,05,57,4.20
2017,03,23,05,58,4.20
2017,03,23,05,59,4.20
2017,03,23,06,00,4.20
2017,03,23,06,01,4.30
2017,03,23,06,02,4.30
2017,03,23,06,03,4.30
2017,03,23,06,04,4.30
2017,03,23,06,05,4.30
2017,03,23,06,06,4.30
2017,03,23,06,07,4.30
2017,03,23,06,08,4.30
2017,03,23,06,09,4.30
2017,03,23,06,10,4.30
2017,03,23,06,11,4.30
2017,03,23,06,12,4.30
2017,03,23,06,13,4.30
2017,03,23,06,14,4.30
2017,03,23,06,15,4.30
2017,03,23,06,16,4.20
2017,03,23,06,17,4.20
2017,03,23,06,18,4.20
2017,03,23,06,19,4.20
2017,03,23,06,20,4.20
2017,03,23,06,21,4.20
2017,03,23,06,22,4.10
2017,03,23,06,23,4.10
2017,03,23,06,24,4.10
2017,03,23,06,25,4.00
2017,03,23,06,26,4.00
2017,03,23,06,27,4.00
2017,03,23,06,28,3.90
2017,03,23,06,29,3.90
2017,03,23,06,30,3.90
2017,03,23,06,31,3.90
2017,03,23,06,32,3.90
2017,03,23,06,33,3.90
2017,03,23,06,34,3.90
2017,03,23,06,35,3.80
2017,03,23,06,36,3.80
2017,03,23,06,37,3.80
2017,03,23,06,38,3.80
2017,03,23,06,39,3.80
2017,03,23,06,40,3.80
2017,03,23,06,41,3.80
2017,03,23,06,42,3.80
2017,03,23,06,43,3.80
2017,03,23,06,44,3.80
2017,03,23,06,45,3.90
2017,03,23,06,46,3.90
2017,03,23,06,47,3.90
2017,03,23,06,48,3.90
2017,03,23,06,49,3.90
2017,03,23,06,50,3.90
2017,03,23,06,51,3.90
2017,03,23,06,52,3.90
2017,03,23,06,53,4.00
2017,03,23,06,54,4.00
2017,03,23,06,55,4.00
2017,03,23,06,56,4.00
2017,03,23,06,57,4.00
2017,03,23,06,58,4.10
2017,03,23,06,59,4.10
2017,03,23,07,00,4.00
2017,03,23,07,01,4.00
2017,03,23,07,02,4.00
2017,03,23,07,03,4.00
2017,03,23,07,04,4.00
2017,03,23,07,05,4.00
2017,03,23,07,06,4.00
2017,03,23,07,07,3.90
2017,03,23,07,08,3.90
2017,03,23,07,09,3.90
2017,03,23,07,10,3.90
2017,03,23,07,11,3.90
2017,03,23,07,12,3.90
2017,03,23,07,13,3.90
2017,03,23,07,14,3.90
2017,03,23,07,15,3.90
2017,03,23,07,16,3.90
2017,03,23,07,17,3.90
2017,03,23,07,18,3.90
2017,03,23,07,19,3.90
2017,03,23,07,20,3.90
2017,03,23,07,21,3.90
2017,03,23,07,22,4.00
2017,03,23,07,23,4.00
2017,03,23,07,24,4.00
2017,03,23,07,25,4.00
2017,03,23,07,26,4.00
2017,03,23,07,27,4.00
2017,03,23,07,28,4.00
2017,03,23,07,29,4.00
2017,03,23,07,30,3.90
2017,03,23,07,31,3.90
2017,03,23,07,32,3.90
2017,03,23,07,33,3.90
2017,03,23,07,34,3.80
2017,03,23,07,35,3.80
2017,03,23,07,36,3.80
2017,03,23,07,37,3.80
2017,03,23,07,38,3.80
2017,03,23,07,39,3.90
2017,03,23,07,40,3.90
2017,03,23,07,41,3.90
2017,03,23,07,42,3.90
2017,03,23,07,43,3.90
2017,03,23,07,44,3.90
2017,03,23,07,45,3.90
2017,03,23,07,46,4.00
2017,03,23,07,47,4.00
2017,03,23,07,48,4.10
2017,03,23,07,49,4.10
2017,03,23,07,50,4.10
2017,03,23,07,51,4.10
2017,03,23,07,52,4.20
2017,03,23,07,53,4.20
2017,03,23,07,54,4.20
2017,03,23,07,55,4.30
2017,03,23,07,56,4.30
2017,03,23,07,57,4.30
2017,03,23,07,58,4.30
2017,03,23,07,59,4.40
2017,03,23,08,00,4.40
2017,03,23,08,01,4.40
2017,03,23,08,02,4.40
2017,03,23,08,03,4.50
2017,03,23,08,04,4.50
2017,03,23,08,05,4.50
2017,03,23,08,06,4.60
2017,03,23,08,07,4.60
2017,03,23,08,08,4.60
2017,03,23,08,09,4.60
2017,03,23,08,10,4.60
2017,03,23,08,11,4.70
2017,03,23,08,12,4.70
2017,03,23,08,13,4.70
2017,03,23,08,14,4.70
2017,03,23,08,15,4.70
2017,03,23,08,16,4.80
2017,03,23,08,17,4.80
2017,03,23,08,18,4.80
2017,03,23,08,19,4.80
2017,03,23,08,20,4.90
2017,03,23,08,21,4.90
2017,03,23,08,22,4.90
2017,03,23,08,23,5.00
2017,03,23,08,24,5.00
2017,03,23,08,25,5.10
2017,03,23,08,26,5.10
2017,03,23,08,27,5.10
2017,03,23,08,28,5.20
2017,03,23,08,29,5.20
2017,03,23,08,30,5.20
2017,03,23,08,31,5.20
2017,03,23,08,32,5.30
2017,03,23,08,33,5.30
2017,03,23,08,34,5.30
2017,03,23,08,35,5.30
2017,03,23,08,36,5.40
2017,03,23,08,37,5.40
2017,03,23,08,38,5.40
2017,03,23,08,39,5.50
2017,03,23,08,40,5.50
2017,03,23,08,41,5.60
2017,03,23,08,42,5.60
2017,03,23,08,43,5.60
2017,03,23,08,44,5.70
2017,03,23,08,45,5.70
2017,03,23,08,46,5.70
2017,03,23,08,47,5.70
2017,03,23,08,48,5.80
2017,03,23,08,49,5.80
2017,03,23,08,50,5.80
2017,03,23,08,51,5.80
2017,03,23,08,52,5.90
2017,03,23,08,53,5.90
2017,03,23,08,54,5.90
2017,03,23,08,55,6.00
2017,03,23,08,56,6.00
2017,03,23,08,57,6.10
2017,03,23,08,58,6.10
2017,03,23,08,59,6.10
2017,03,23,09,00,6.20
2017,03,23,09,01,6.20
2017,03,23,09,02,6.20
2017,03,23,09,03,6.20
2017,03,23,09,04,6.30
2017,03,23,09,05,6.30
2017,03,23,09,06,6.30
2017,03,23,09,07,6.30
2017,03,23,09,08,6.30
2017,03,23,09,09,6.30
2017,03,23,09,10,6.30
2017,03,23,09,11,6.40
2017,03,23,09,12,6.40
2017,03,23,09,13,6.40
2017,03,23,09,14,6.40
2017,03,23,09,15,6.40
2017,03,23,09,16,6.40
2017,03,23,09,17,6.40
2017,03,23,09,18,6.40
2017,03,23,09,19,6.40
2017,03,23,09,20,6.40
2017,03,23,09,21,6.40
2017,03,23,09,22,6.50
2017,03,23,09,23,6.50
2017,03,23,09,24,6.50
2017,03,23,09,25,6.60
2017,03,23,09,26,6.60
2017,03,23,09,27,6.60
2017,03,23,09,28,6.70
2017,03,23,09,29,6.70
2017,03,23,09,30,6.70
2017,03,23,09,31,6.70
2017,03,23,09,32,6.70
2017,03,23,09,33,6.70
2017,03,23,09,34,6.70
2017,03,23,09,35,6.80
2017,03,23,09,36,6.80
2017,03,23,09,37,6.80
2017,03,23,09,38,6.90
2017,03,23,09,39,6.90
2017,03,23,09,40,6.90
2017,03,23,09,41,6.90
2017,03,23,09,42,6.90
2017,03,23,09,43,6.90
2017,03,23,09,44,6.90
2017,03,23,09,45,7.00
2017,03,23,09,46,7.00
2017,03,23,09,47,7.00
2017,03,23,09,48,7.00
2017,03,23,09,49,7.00
2017,03,23,09,50,7.10
2017,03,23,09,51,7.10
2017,03,23,09,52,7.10
2017,03,23,09,53,7.10
2017,03,23,09,54,7.10
2017,03,23,09,55,7.10
2017,03,23,09,56,7.20
2017,03,23,09,57,7.20
2017,03,23,09,58,7.10
2017,03,23,09,59,7.10
2017,03,23,10,00,7.10
2017,03,23,10,01,7.10
2017,03,23,10,02,7.10
2017,03,23,10,03,7.20
2017,03,23,10,04,7.20
2017,03,23,10,05,7.10
2017,03,23,10,06,7.10
2017,03,23,10,07,7.20
2017,03,23,10,08,7.20
2017,03,23,10,09,7.20
2017,03,23,10,10,7.30
2017,03,23,10,11,7.30
2017,03,23,10,12,7.30
2017,03,23,10,13,7.30
2017,03,23,10,14,7.30
2017,03,23,10,15,7.30
2017,03,23,10,16,7.30
2017,03,23,10,17,7.30
2017,03,23,10,18,7.30
2017,03,23,10,19,7.30
2017,03,23,10,20,7.30
2017,03,23,10,21,7.30
2017,03,23,10,22,7.30
2017,03,23,10,23,7.30
2017,03,23,10,24,7.20
2017,03,23,10,25,7.20
2017,03,23,10,26,7.20
2017,03,23,10,27,7.20
2017,03,23,10,28,7.30
2017,03,23,10,29,7.30
2017,03,23,10,30,7.30
2017,03,23,10,31,7.30
2017,03,23,10,32,7.30
2017,03,23,10,33,7.30
2017,03,23,10,34,7.30
2017,03,23,10,35,7.30
2017,03,23,10,36,7.30
2017,03,23,10,37,7.40
2017,03,23,10,38,7.40
2017,03,23,10,39,7.40
2017,03,23,10,40,7.40
2017,03,23,10,41,7.40
2017,03,23,10,42,7.40
2017,03,23,10,43,7.40
2017,03,23,10,44,7.40
2017,03,23,10,45,7.40
2017,03,23,10,46,7.40
2017,03,23,10,47,7.40
2017,03,23,10,48,7.40
2017,03,23,10,49,7.40
2017,03,23,10,50,7.40
2017,03,23,10,51,7.30
2017,03,23,10,52,7.30
2017,03,23,10,53,7.20
2017,03,23,10,54,7.20
2017,03,23,10,55,7.20
2017,03,23,10,56,7.20
2017,03,23,10,57,7.30
2017,03,23,10,58,7.30
2017,03,23,10,59,7.30
2017,03,23,11,00,7.30
2017,03,23,11,01,7.40
2017,03,23,11,02,7.40
2017,03,23,11,03,7.40
2017,03,23,11,04,7.40
2017,03,23,11,05,7.40
2017,03,23,11,06,7.40
2017,03,23,11,07,7.40
2017,03,23,11,08,7.40
2017,03,23,11,09,7.50
2017,03,23,11,10,7.50
2017,03,23,11,11,7.60
2017,03,23,11,12,7.60
2017,03,23,11,13,7.70
2017,03,23,11,14,7.70
2017,03,23,11,15,7.80
2017,03,23,11,16,7.80
2017,03,23,11,17,7.80
2017,03,23,11,18,7.80
2017,03,23,11,19,7.80
2017,03,23,11,20,7.90
2017,03,23,11,21,8.00
2017,03,23,11,22,8.00
2017,03,23,11,23,8.10
2017,03,23,11,24,8.10
2017,03,23,11,25,8.10
2017,03,23,11,26,8.10
2017,03,23,11,27,8.10
2017,03,23,11,28,8.10
2017,03,23,11,29,8.10
2017,03,23,11,30,8.10
2017,03,23,11,31,8.20
2017,03,23,11,32,8.20
2017,03,23,11,33,8.20
2017,03,23,11,34,8.30
2017,03,23,11,35,8.30
2017,03,23,11,36,8.30
2017,03,23,11,37,8.30
2017,03,23,11,38,8.30
2017,03,23,11,39,8.30
2017,03,23,11,40,8.30
2017,03,23,11,41,8.30
2017,03,23,11,42,8.40
2017,03,23,11,43,8.40
2017,03,23,11,44,8.40
2017,03,23,11,45,8.40
2017,03,23,11,46,8.50
2017,03,23,11,47,8.50
2017,03,23,11,48,8.60
2017,03,23,11,49,8.60
2017,03,23,11,50,8.70
2017,03,23,11,51,8.70
2017,03,23,11,52,8.80
2017,03,23,11,53,8.80
2017,03,23,11,54,8.90
2017,03,23,11,55,8.90
2017,03,23,11,56,8.90
2017,03,23,11,57,8.90
2017,03,23,11,58,8.90
2017,03,23,11,59,9.00
2017,03,23,12,00,9.00
2017,03,23,12,01,9.10
2017,03,23,12,02,9.10
2017,03,23,12,03,9.00
2017,03,23,12,04,9.00
2017,03,23,12,05,9.00
2017,03,23,12,06,9.00
2017,03,23,12,07,9.00
2017,03,23,12,08,9.00
2017,03,23,12,09,8.90
2017,03,23,12,10,8.90
2017,03,23,12,11,8.90
2017,03,23,12,12,8.90
2017,03,23,12,13,8.90
2017,03,23,12,14,8.90
2017,03,23,12,15,8.90
2017,03,23,12,16,8.90
2017,03,23,12,17,8.90
2017,03,23,12,18,8.90
2017,03,23,12,19,8.90
2017,03,23,12,20,8.90
2017,03,23,12,21,9.00
2017,03,23,12,22,9.00
2017,03,23,12,23,9.00
2017,03,23,12,24,9.10
2017,03,23,12,25,9.10
2017,03,23,12,26,9.20
2017,03,23,12,27,9.20
2017,03,23,12,28,9.20
2017,03,23,12,29,9.30
2017,03,23,12,30,9.30
2017,03,23,12,31,9.40
2017,03,23,12,32,9.40
2017,03,23,12,33,9.40
2017,03,23,12,34,9.40
2017,03,23,12,35,9.40
2017,03,23,12,36,9.40
2017,03,23,12,37,9.40
2017,03,23,12,38,9.40
2017,03,23,12,39,9.40
2017,03,23,12,40,9.40
2017,03,23,12,41,9.40
2017,03,23,12,42,9.40
2017,03,23,12,43,9.50
2017,03,23,12,44,9.50
2017,03,23,12,45,9.40
2017,03,23,12,46,9.40
2017,03,23,12,47,9.30
2017,03,23,12,48,9.30
2017,03,23,12,49,9.30
2017,03,23,12,50,9.40
2017,03,23,12,51,9.40
2017,03,23,12,52,9.50
2017,03,23,12,53,9.50
2017,03,23,12,54,9.60
2017,03,23,12,55,9.60
2017,03,23,12,56,9.70
2017,03,23,12,57,9.70
2017,03,23,12,58,9.80
2017,03,23,12,59,9.80
2017,03,23,13,00,9.80
2017,03,23,13,01,9.80
2017,03,23,13,02,9.80
2017,03,23,13,03,9.80
2017,03,23,13,04,9.70
2017,03,23,13,05,9.70
2017,03,23,13,06,9.70
2017,03,23,13,07,9.70
2017,03,23,13,08,9.70
2017,03,23,13,09,9.70
2017,03,23,13,10,9.70
2017,03,23,13,11,9.60
2017,03,23,13,12,9.60
2017,03,23,13,13,9.50
2017,03,23,13,14,9.40
2017,03,23,13,15,9.40
2017,03,23,13,16,9.40
2017,03,23,13,17,9.40
2017,03,23,13,18,9.40
2017,03,23,13,19,9.50
2017,03,23,13,20,9.40
2017,03,23,13,21,9.40
2017,03,23,13,22,9.30
2017,03,23,13,23,9.30
2017,03,23,13,24,9.30
2017,03,23,13,25,9.30
2017,03,23,13,26,9.20
2017,03,23,13,27,9.20
2017,03,23,13,28,9.20
2017,03,23,13,29,9.30
2017,03,23,13,30,9.30
2017,03,23,13,31,9.30
2017,03,23,13,32,9.30
2017,03,23,13,33,9.40
2017,03,23,13,34,9.40
2017,03,23,13,35,9.40
2017,03,23,13,36,9.40
2017,03,23,13,37,9.40
2017,03,23,13,38,9.50
2017,03,23,13,39,9.60
2017,03,23,13,40,9.60
2017,03,23,13,41,9.60
2017,03,23,13,42,9.70
2017,03,23,13,43,9.80
2017,03,23,13,44,9.80
2017,03,23,13,45,9.80
2017,03,23,13,46,9.80
2017,03,23,13,47,9.80
2017,03,23,13,48,9.80
2017,03,23,13,49,9.80
2017,03,23,13,50,9.80
2017,03,23,13,51,9.90
2017,03,23,13,52,9.90
2017,03,23,13,53,9.90
2017,03,23,13,54,10.00
2017,03,23,13,55,10.00
2017,03,23,13,56,10.00
2017,03,23,13,57,10.00
2017,03,23,13,58,10.00
2017,03,23,13,59,9.90
2017,03,23,14,00,9.90
2017,03,23,14,01,9.80
2017,03,23,14,02,9.80
2017,03,23,14,03,9.80
2017,03,23,14,04,9.90
2017,03,23,14,05,9.90
2017,03,23,14,06,10.00
2017,03,23,14,07,10.00
2017,03,23,14,08,10.00
2017,03,23,14,09,10.10
2017,03,23,14,10,10.10
2017,03,23,14,11,10.00
2017,03,23,14,12,10.00
2017,03,23,14,13,9.90
2017,03,23,14,14,9.90
2017,03,23,14,15,9.90
2017,03,23,14,16,10.00
2017,03,23,14,17,10.10
2017,03,23,14,18,10.10
2017,03,23,14,19,10.20
2017,03,23,14,20,10.30
2017,03,23,14,21,10.30
2017,03,23,14,22,10.20
2017,03,23,14,23,10.10
2017,03,23,14,24,10.10
2017,03,23,14,25,10.10
2017,03,23,14,26,10.10
2017,03,23,14,27,10.10
2017,03,23,14,28,10.10
2017,03,23,14,29,10.10
2017,03,23,14,30,10.10
2017,03,23,14,31,10.20
2017,03,23,14,32,10.20
2017,03,23,14,33,10.10
2017,03,23,14,34,10.10
2017,03,23,14,35,10.00
2017,03,23,14,36,10.00
2017,03,23,14,37,9.90
2017,03,23,14,38,9.90
2017,03,23,14,39,9.90
2017,03,23,14,40,10.00
2017,03,23,14,41,10.10
2017,03,23,14,42,10.10
2017,03,23,14,43,10.00
2017,03,23,14,44,10.00
2017,03,23,14,45,10.00
2017,03,23,14,46,10.00
2017,03,23,14,47,10.10
2017,03,23,14,48,10.00
2017,03,23,14,49,9.90
2017,03,23,14,50,9.80
2017,03,23,14,51,9.70
2017,03,23,14,52,9.60
2017,03,23,14,53,9.60
2017,03,23,14,54,9.60
2017,03,23,14,55,9.60
2017,03,23,14,56,9.60
2017,03,23,14,57,9.60
2017,03,23,14,58,9.70
2017,03,23,14,59,9.70
2017,03,23,15,00,9.70
2017,03,23,15,01,9.70
2017,03,23,15,02,9.70
2017,03,23,15,03,9.70
2017,03,23,15,04,9.70
2017,03,23,15,05,9.80
2017,03,23,15,06,9.80
2017,03,23,15,07,9.80
2017,03,23,15,08,9.80
2017,03,23,15,09,9.70
2017,03,23,15,10,9.60
2017,03,23,15,11,9.60
2017,03,23,15,12,9.60
2017,03,23,15,13,9.60
2017,03,23,15,14,9.70
2017,03,23,15,15,9.70
2017,03,23,15,16,9.70
2017,03,23,15,17,9.70
2017,03,23,15,18,9.80
2017,03,23,15,19,9.70
2017,03,23,15,20,9.70
2017,03,23,15,21,9.80
2017,03,23,15,22,9.80
2017,03,23,15,23,9.70
2017,03,23,15,24,9.70
2017,03,23,15,25,9.70
2017,03,23,15,26,9.70
2017,03,23,15,27,9.70
2017,03,23,15,28,9.60
2017,03,23,15,29,9.60
2017,03,23,15,30,9.60
2017,03,23,15,31,9.60
2017,03,23,15,32,9.70
2017,03,23,15,33,9.70
2017,03,23,15,34,9.60
2017,03,23,15,35,9.60
2017,03,23,15,36,9.60
2017,03,23,15,37,9.50
2017,03,23,15,38,9.40
2017,03,23,15,39,9.40
2017,03,23,15,40,9.40
2017,03,23,15,41,9.40
2017,03,23,15,42,9.40
2017,03,23,15,43,9.40
2017,03,23,15,44,9.40
2017,03,23,15,45,9.30
2017,03,23,15,46,9.30
2017,03,23,15,47,9.30
2017,03,23,15,48,9.30
2017,03,23,15,49,9.30
2017,03,23,15,50,9.40
2017,03,23,15,51,9.40
2017,03,23,15,52,9.40
2017,03,23,15,53,9.40
2017,03,23,15,54,9.40
2017,03,23,15,55,9.50
2017,03,23,15,56,9.50
2017,03,23,15,57,9.50
2017,03,23,15,58,9.50
2017,03,23,15,59,9.50
2017,03,23,16,00,9.50
2017,03,23,16,01,9.50
2017,03,23,16,02,9.50
2017,03,23,16,03,9.50
2017,03,23,16,04,9.60
2017,03,23,16,05,9.50
2017,03,23,16,06,9.50
2017,03,23,16,07,9.50
2017,03,23,16,08,9.60
2017,03,23,16,09,9.60
2017,03,23,16,10,9.60
2017,03,23,16,11,9.60
2017,03,23,16,12,9.60
2017,03,23,16,13,9.60
2017,03,23,16,14,9.70
2017,03,23,16,15,9.70
2017,03,23,16,16,9.70
2017,03,23,16,17,9.60
2017,03,23,16,18,9.60
2017,03,23,16,19,9.60
2017,03,23,16,20,9.60
2017,03,23,16,21,9.60
2017,03,23,16,22,9.60
2017,03,23,16,23,9.60
2017,03,23,16,24,9.60
2017,03,23,16,25,9.60
2017,03,23,16,26,9.60
2017,03,23,16,27,9.60
2017,03,23,16,28,9.60
2017,03,23,16,29,9.60
2017,03,23,16,30,9.60
2017,03,23,16,31,9.60
2017,03,23,16,32,9.60
2017,03,23,16,33,9.60
2017,03,23,16,34,9.60
2017,03,23,16,35,9.60
2017,03,23,16,36,9.60
2017,03,23,16,37,9.60
2017,03,23,16,38,9.60
2017,03,23,16,39,9.60
2017,03,23,16,40,9.60
2017,03,23,16,41,9.60
2017,03,23,16,42,9.60
2017,03,23,16,43,9.60
2017,03,23,16,44,9.60
2017,03,23,16,45,9.60
2017,03,23,16,46,9.70
2017,03,23,16,47,9.70
2017,03,23,16,48,9.70
2017,03,23,16,49,9.70
2017,03,23,16,50,9.80
2017,03,23,16,51,9.80
2017,03,23,16,52,9.80
2017,03,23,16,53,9.80
2017,03,23,16,54,9.80
2017,03,23,16,55,9.80
2017,03,23,16,56,9.80
2017,03,23,16,57,9.80
2017,03,23,16,58,9.80
2017,03,23,16,59,9.80
2017,03,23,17,00,9.80
2017,03,23,17,01,9.90
2017,03,23,17,02,9.90
2017,03,23,17,03,9.90
2017,03,23,17,04,9.80
2017,03,23,17,05,9.80
2017,03,23,17,06,9.80
2017,03,23,17,07,9.80
2017,03,23,17,08,9.90
2017,03,23,17,09,9.90
2017,03,23,17,10,9.90
2017,03,23,17,11,9.90
2017,03,23,17,12,9.90
2017,03,23,17,13,9.90
2017,03,23,17,14,9.90
2017,03,23,17,15,9.90
2017,03,23,17,16,9.90
2017,03,23,17,17,9.90
2017,03,23,17,18,9.90
2017,03,23,17,19,9.90
2017,03,23,17,20,9.90
2017,03,23,17,21,9.90
2017,03,23,17,22,9.90
2017,03,23,17,23,9.90
2017,03,23,17,24,9.90
2017,03,23,17,25,9.90
2017,03,23,17,26,9.90
2017,03,23,17,27,9.90
2017,03,23,17,28,9.90
2017,03,23,17,29,9.90
2017,03,23,17,30,10.00
2017,03,23,17,31,10.00
2017,03,23,17,32,10.00
2017,03,23,17,33,10.00
2017,03,23,17,34,10.00
2017,03,23,17,35,10.00
2017,03,23,17,36,10.00
2017,03,23,17,37,10.00
2017,03,23,17,38,10.00
2017,03,23,17,39,10.00
2017,03,23,17,40,10.00
2017,03,23,17,41,10.00
2017,03,23,17,42,10.00
2017,03,23,17,43,10.00
2017,03,23,17,44,10.00
2017,03,23,17,45,10.00
2017,03,23,17,46,10.00
2017,03,23,17,47,10.00
2017,03,23,17,48,10.00
2017,03,23,17,49,10.00
2017,03,23,17,50,10.00
2017,03,23,17,51,10.00
2017,03,23,17,52,10.00
2017,03,23,17,53,10.00
2017,03,23,17,54,10.00
2017,03,23,17,55,10.00
2017,03,23,17,56,10.00
2017,03,23,17,57,9.90
2017,03,23,17,58,9.90
2017,03,23,17,59,9.90
2017,03,23,18,00,9.90
2017,03,23,18,01,9.90
2017,03,23,18,02,9.90
2017,03,23,18,03,9.90